Location: Peebles
(55.6412°N, 3.1714°W)
Time: 14:57:39
(UTC+01:00)

CHARLIE (NANOAVIONICS) - Pass Details

Date: 09 July 2022
Orbit: 506 x 524 km, 97.4° (Epoch: 16 August)

Event Time Altitude Azimuth Distance (km) Brightness Sun altitude
Rises 22:48:26 0° 196° (SSW) 2,656 ? -5.9°
Reaches altitude 10° 22:50:48 10° 209° (SSW) 1,771 ? -6.0°
Maximum altitude 22:54:01 25° 267° (W) 1,087 ? -6.3°
Drops below altitude 10° 22:57:15 10° 324° (NW) 1,779 ? -6.5°
Sets 22:59:39 0° 338° (NNW) 2,671 ? -6.7°
